Regional Weather Roundup
Issued by NWS

Home | Current Version | Previous Version | Text Only | Print | Product List | Glossary Off
Versions: 1 2 3 4 5 6 7 8 9 10 11 12 13 14 15 16 17 18 19 20 21 22 23 24 25 26 27 28 29 30 31 32 33 34 35 36 37 38 39 40 41 42 43 44 45 46 47 48 49 50

000
ASUS43 KDMX 281006
RWRIA

WEATHER ROUNDUP FOR IOWA
NATIONAL WEATHER SERVICE DES MOINES IA
500 AM CDT FRI APR 28 2017

NOTE: "FAIR" INDICATES FEW OR NO CLOUDS BELOW 12,000 FEET WITH NO
SIGNIFICANT WEATHER AND/OR OBSTRUCTIONS TO VISIBILITY.

* - THESE STATIONS ARE NOT NWS STATIONS...THUS NOT UNDER NWS
QUALITY CONTROL.  THEY ALSO DO NOT REPORT WEATHER SUCH
AS PRECIPITATION OR FOG.

IAZ001>003-012>014-020>022-031>034-043>046-281100-
   NORTHWEST IOWA

CITY           SKY/WX    TMP DP  RH WIND       PRES   REMARKS
CARROLL *      CLOUDY    34  30  86 E7        29.85S WCI  28
CHEROKEE *     CLOUDY    29  28  95 CALM      29.85S
DENISON *      CLOUDY    34  28  80 E12       29.85S WCI  25
LE MARS *      CLOUDY    32  28  86 CALM      29.86R
ORANGE CITY *  CLOUDY    30  27  86 E5        29.84R WCI  25
SHELDON *      CLOUDY    28  27  93 E7        29.83S WCI  21
SIOUX CITY     PTCLDY    32  28  85 SE6       29.84S WCI  26
SPENCER        CLEAR     24  21  88 CALM      29.85S
STORM LAKE *   PTCLDY    28  27  93 E9        29.84S WCI  20
$$

IAZ055>058-069>071-079>083-090>094-281100-
   SOUTHWEST IOWA

CITY           SKY/WX    TMP DP  RH WIND       PRES   REMARKS
ATLANTIC *     CLOUDY    41  32  70 E13G24    29.81S
AUDUBON *      CLOUDY    36  30  80 E12       29.85R WCI  27
CLARINDA *       N/A     45  37  76 NE9G15    29.80S
COUNCIL BLFS * CLOUDY    43  36  75 E14       29.77F
CRESTON *      CLOUDY    41  34  75 E16G22    29.81S
HARLAN  *      CLOUDY    37  32  81 NE10G17   29.86R WCI  30
LAMONI         CLOUDY    43  36  76 NE14      29.79S
RED OAK *      CLOUDY    45  37  76 NE10G21   29.78F
SHENANDOAH *   LGT RAIN  46  39  76 NE14      29.76F
$$

IAZ047>049-059>061-072>074-084-281100-
   CENTRAL IOWA

CITY           SKY/WX    TMP DP  RH WIND       PRES   REMARKS
AMES           CLOUDY    34  30  85 E8        29.87S WCI  27
ANKENY *       CLOUDY    37  30  75 NE7       29.88R WCI  32
BOONE *        MOCLDY    32  28  86 NE9       29.84F WCI  24
CHARITON *     CLOUDY    41  34  75 NE12      29.82F
DES MOINES     CLOUDY    41  31  67 NE14      29.86R
GRINNELL*      CLOUDY    37  32  82 NE12      29.88R WCI  29
KNOXVILLE *    MOCLDY    41  32  70 NE8       29.83F
MARSHALLTOWN   CLOUDY    32  28  85 NE8       29.87S WCI  25
NEWTON *       CLOUDY    37  30  75 NE15G22   29.86R WCI  28
PELLA *        MOCLDY    40  33  75 E3        29.86F
PERRY *        CLOUDY    36  29  76 E10       29.86R WCI  29
$$

IAZ004>006-015-016-023>025-035-036-281100-
   NORTH CENTRAL IOWA

CITY           SKY/WX    TMP DP  RH WIND       PRES   REMARKS
ALGONA *       CLEAR     30  28  93 CALM      29.86R
CLARION *      CLOUDY    30  28  93 E6        29.86R WCI  24
ESTHERVILLE    CLEAR     26  25  96 NW3       29.85S
FORT DODGE *   CLOUDY    28  25  86 NE6       29.86S WCI  22
MASON CITY     CLEAR     24  22  91 CALM      29.87S
FOREST CITY *    N/A     27  21  80 CALM      29.85F
WEBSTER CITY * CLOUDY    28  25  86 SE8       29.86R WCI  20
IOWA FALLS *     N/A     31  27  86 NE3       29.88R
$$

IAZ007>011-017>019-026>030-037>042-050>054-066-281100-
   NORTHEAST IOWA

CITY           SKY/WX    TMP DP  RH WIND       PRES   REMARKS
CEDAR RAPIDS   MOCLDY    36  33  89 N10       29.87R WCI  28
CHARLES CITY * CLOUDY    30  27  86 N3        29.87F
CLINTON *      MOCLDY    34  32  92 S5        29.90R WCI  30
DECORAH *      CLEAR     30  27  86 NW5       29.86S WCI  25
DUBUQUE        CLEAR     32  28  85 NW3       29.87S
MONTICELLO *   PTCLDY    32  32 100 CALM      29.88R
OELWEIN *      CLOUDY    30  28  93 CALM      29.87
WATERLOO       CLOUDY    29  24  82 SE3       29.87S
$$

IAZ064-065-067-068-078-281100-
   EAST CENTRAL IOWA

CITY           SKY/WX    TMP DP  RH WIND       PRES   REMARKS
DAVENPORT      CLOUDY    37  32  82 N3        29.90R
IOWA CITY      CLOUDY    41  32  70 E3        29.90R
MT. PLEASANT * PTCLDY    40  35  83 NE7       29.87S WCI  35
MUSCATINE *    CLOUDY    39  34  81 N6        29.89S WCI  35
QUAD CITIES    CLOUDY    40  35  83 CALM      29.88R
$$

IAZ062-063-075>077-085>089-095>099-281100-
   SOUTHEAST IOWA

CITY           SKY/WX    TMP DP  RH WIND       PRES   REMARKS
BURLINGTON     CLOUDY    43  39  86 NE9       29.86S
FAIRFIELD *    CLOUDY    41  34  75 E9        29.85F
FORT MADISON * MOCLDY    45  39  81 NE6       29.86F
KEOKUK *       CLOUDY    46  45  93 NE6       29.84F
OSKALOOSA *    CLOUDY    39  33  78 NE10      29.85F WCI  32
CENTERVILLE *  MOCLDY    41  36  81 NE9       29.84R
OTTUMWA        CLOUDY    41  35  79 E10       29.84F
WASHINGTON *   CLOUDY    39  36  87 NE7       29.88S WCI  34
$$

ABBREVIATIONS USED IN REMARKS
   TC - TEMPERATURES IN CELSIUS
  WCI - WIND CHILL INDEX
   HX - HEAT INDEX
  VSB - VISIBILITY
$$





USA.gov is the U.S. government's official web portal to all federal, state and local government web resources and services.